Location: D�nning
(49.2479°N, 12.8491°E)
Time: 15:12:32
(UTC+00:00)

USA 234 - Pass Details

Date: 18 September 2020
Orbit: 1102 x 1106 km, 123.0° (Epoch: 16 October)

Event Time Altitude Azimuth Distance (km) Brightness Sun altitude
Rises 21:58:47 0° 65° (ENE) 3,924 6.2 -37.5°
Reaches altitude 10° 22:01:20 10° 61° (ENE) 2,966 5.6 -37.7°
Enters shadow 22:03:22 21° 53° (NE) 2,253 5.0 -37.8°
Exits shadow 22:06:55 48° 7° (N) 1,416 4.0 -37.9°
Maximum altitude 22:07:34 50° 349° (NNW) 1,388 3.9 -38.0°
Drops below altitude 10° 22:13:49 10° 276° (W) 2,965 5.7 -38.3°
Sets 22:16:22 0° 272° (W) 3,923 6.3 -38.4°
